This is the latest recevied weather packets stored in our database for station/object KK7MLS-13. If no packets are shown the sender has not sent any weather packets the latest 10 day(s).
| Time | Temp. | Humidity | Pressure | Rain* | Wind** | Luminosity | Snow |
|---|---|---|---|---|---|---|---|
| 1777324227 | 13.33° C | 67% | 1019.1 hPa | 0 mm | - | 110 W/m² | - |
| 1777323926 | 13.33° C | 65% | 1019 hPa | 0 mm | - | 131 W/m² | - |
| 1777323622 | 13.33° C | 65% | 1019 hPa | 0 mm | - | 136 W/m² | - |
| 1777323319 | 13.33° C | 63% | 1019 hPa | 0 mm | - | 119 W/m² | - |
| 1777323018 | 13.33° C | 66% | 1019 hPa | 0 mm | - | 103 W/m² | - |
| 1777322715 | 13.89° C | 64% | 1018.9 hPa | 0 mm | - | 153 W/m² | - |
| 1777322413 | 13.33° C | 65% | 1019.1 hPa | 0 mm | - | 229 W/m² | - |
| 1777322109 | 13.33° C | 68% | 1019.1 hPa | 0 mm | - | 261 W/m² | - |
| 1777321806 | 12.78° C | 65% | 1019.2 hPa | 0 mm | - | 254 W/m² | - |
| 1777321502 | 12.78° C | 66% | 1019.1 hPa | 0 mm | - | 178 W/m² | - |
| 1777321200 | 12.78° C | 64% | 1019.3 hPa | 0 mm | - | 137 W/m² | - |
| 1777320897 | 13.33° C | 65% | 1019.1 hPa | 0 mm | - | 136 W/m² | - |
| 1777320594 | 13.33° C | 64% | 1019.2 hPa | 0 mm | - | 173 W/m² | - |
| 1777320292 | 13.33° C | 66% | 1019.2 hPa | 0 mm | - | 219 W/m² | - |
| 1777319988 | 13.33° C | 65% | 1019.1 hPa | 0 mm | - | 286 W/m² | - |
| 1777319686 | 13.33° C | 65% | 1019.1 hPa | 0 mm | - | 298 W/m² | - |
| 1777319382 | 13.33° C | 66% | 1019.1 hPa | 0 mm | - | 201 W/m² | - |
| 1777319079 | 13.33° C | 66% | 1019.3 hPa | 0 mm | - | 277 W/m² | - |
| 1777318777 | 13.89° C | 65% | 1019.5 hPa | 0 mm | - | 267 W/m² | - |
| 1777318472 | 13.89° C | 65% | 1019.1 hPa | 0 mm | - | 296 W/m² | - |
| 1777318169 | 13.89° C | 67% | 1019.2 hPa | 0 mm | - | 256 W/m² | - |
| 1777317866 | 13.89° C | 64% | 1019.2 hPa | 0 mm | - | 233 W/m² | - |
| 1777317564 | 13.33° C | 65% | 1019.1 hPa | 0 mm | - | 285 W/m² | - |
| 1777317260 | 13.33° C | 66% | 1019.4 hPa | 0 mm | - | 269 W/m² | - |
| 1777316956 | 12.78° C | 67% | 1019.4 hPa | 0 mm | - | 262 W/m² | - |
* Rain latest hour (hover to see other rain measurements)
** Current wind speed in m/s (hover to see current wind gust speed)